Location: Ferintosh
(52.7647°N, 112.9692°W)
Time: 15:44:55
(UTC+00:00)

Transit 2A - Pass Details

Date: 19 May 2024
Orbit: 592 x 959 km, 66.7° (Epoch: 23 June)

Event Time Altitude Azimuth Distance (km) Brightness Sun altitude
Rises 08:13:07 0° 234° (SW) 2,957 - -16.7°
Reaches altitude 10° 08:15:21 10° 239° (WSW) 2,095 - -16.6°
Exits shadow 08:16:12 15° 243° (WSW) 1,776 7.5 -16.6°
Maximum altitude 08:20:00 54° 318° (NW) 871 6.5 -16.5°
Drops below altitude 10° 08:25:12 10° 36° (NE) 2,334 9.6 -16.3°
Sets 08:27:49 0° 41° (NE) 3,330 10.5 -16.2°
